Location: Falniów
(50.3639°N, 19.9642°E)
Time: 21:41:38
(UTC+00:00)

Meteor 2-5 Rocket - Pass Details

Date: 18 January 2026
Orbit: 833 x 910 km, 81.2° (Epoch: 18 February)

Event Time Altitude Azimuth Distance (km) Brightness Sun altitude
Rises 05:49:20 0° 342° (NNW) 3,506 6.5 -6.8°
Reaches altitude 10° 05:51:53 10° 336° (NNW) 2,573 5.8 -6.4°
Maximum altitude 05:57:22 42° 268° (W) 1,259 4.3 -5.6°
Drops below altitude 10° 06:02:53 10° 199° (SSW) 2,586 6.3 -4.8°
Sets 06:05:27 0° 193° (SSW) 3,526 7.1 -4.5°
